Weather History for KOXI - May, 2012

Change the Weather History Date:

Saturday, May 5, 2012

  Actual Average (KVPZ) Record (KVPZ)
Temperature  
Mean Temperature 64 °F 56 °F  
Max Temperature 86 °F 67 °F 83 °F (2000)
Min Temperature 50 °F 45 °F 34 °F (2011)
Degree Days  
Heating Degree Days 2 10  
Month to date heating degree days 51  
Since 1 July heating degree days 6110  
Cooling Degree Days 0 1  
Month to date cooling degree days 1  
Year to date cooling degree days 6  
Growing Degree Days 14 (Base 50)    
Moisture  
Dew Point 59 °F    
Average Humidity 82    
Maximum Humidity 99    
Minimum Humidity 55    
Precipitation  
Precipitation 0.00 in 0.13 in 0.63 in (2015)
Month to date precipitation 0.69  
Year to date precipitation 9.87  
Sea Level Pressure  
Sea Level Pressure 29.97 in    
Wind  
Wind Speed 5 mph (East)    
Max Wind Speed 10 mph    
Max Gust Speed -    
Visibility 6 miles    
Events      
T = Trace of Precipitation, MM = Missing Value Source: NWS Daily Summary

Daily Weather History Graph

Daily Weather History Graph

Search for Another Location

Airport or City:

Trip Planner

Search our weather history database for the weather conditions in past years. The results will help you decide how hot, cold, wet, or windy it might be!

Date:

Astronomy

May. 05, 2012 Rise Set
Actual Time 5:38 AM CDT 7:48 PM CDT
Civil Twilight 5:07 AM CDT 8:19 PM CDT
Nautical Twilight 4:30 AM CDT 8:57 PM CDT
Astronomical Twilight 3:49 AM CDT 9:38 PM CDT
Moon 7:41 PM CDT (5/5) 5:00 AM CDT (5/5)
Length of Visible Light 15h 11m
Length of Day
14h 10m
Full, 100% of the Moon is Illuminated
May 5
Full
May 5
Full
May 12
Last Quarter
May 20
New
May 28
First Quarter

Hourly Weather History & Observations

Time (CDT) Temp. Dew Point Humidity Pressure Visibility Wind Dir Wind Speed Gust Speed Precip Events Conditions
12:15 AM 50.4 °F 49.6 °F 97% 29.96 in 2.5 mi NNW 4.6 mph - N/A   Overcast
12:35 AM 50.7 °F 50.0 °F 97% 29.96 in 0.8 mi NNW 4.6 mph - N/A   Overcast
12:55 AM 51.1 °F 50.4 °F 97% 29.95 in 0.8 mi NNE 3.5 mph - N/A   Overcast
1:15 AM 51.4 °F 50.9 °F 98% 29.93 in 1.0 mi East 3.5 mph - N/A   Overcast
1:35 AM 52.0 °F 51.6 °F 99% 29.93 in 2.0 mi NNE 4.6 mph - N/A   Overcast
1:55 AM 52.5 °F 52.0 °F 98% 29.92 in 2.5 mi Calm Calm - N/A   Overcast
2:15 AM 53.2 °F 52.7 °F 98% 29.92 in 4.0 mi North 5.8 mph - N/A   Overcast
2:35 AM 54.1 °F 53.6 °F 98% 29.93 in 5.0 mi NNW 4.6 mph - N/A   Overcast
2:55 AM 54.5 °F 54.0 °F 98% 29.93 in 5.0 mi North 3.5 mph - N/A   Overcast
3:15 AM 55.0 °F 54.3 °F 97% 29.93 in 5.0 mi Calm Calm - N/A   Overcast
3:35 AM 55.6 °F 54.5 °F 96% 29.94 in 5.0 mi NNW 3.5 mph - N/A   Overcast
3:55 AM 55.9 °F 54.9 °F 96% 29.93 in 5.0 mi East 3.5 mph - N/A   Overcast
4:15 AM 56.3 °F 55.0 °F 96% 29.93 in 7.0 mi Calm Calm - N/A   Mostly Cloudy
4:35 AM 55.8 °F 54.7 °F 96% 29.94 in 5.0 mi Calm Calm - N/A   Clear
4:55 AM 55.6 °F 54.7 °F 97% 29.95 in 5.0 mi NNW 6.9 mph - N/A   Clear
5:15 AM 55.4 °F 54.5 °F 97% 29.94 in 5.0 mi Calm Calm - N/A   Clear
5:35 AM 55.6 °F 54.7 °F 97% 29.94 in 3.0 mi Calm Calm - N/A   Clear
5:55 AM 55.0 °F 54.3 °F 97% 29.95 in 3.0 mi Calm Calm - N/A   Clear
6:15 AM 55.2 °F 54.5 °F 97% 29.95 in 3.0 mi Calm Calm - N/A   Scattered Clouds
6:35 AM 56.3 °F 55.6 °F 97% 29.96 in 3.0 mi Calm Calm - N/A   Mostly Cloudy
6:55 AM 58.8 °F 58.1 °F 97% 29.96 in 3.0 mi East 5.8 mph - N/A   Overcast
7:15 AM 61.9 °F 60.6 °F 96% 29.97 in 2.5 mi East 8.1 mph - N/A   Overcast
7:35 AM 63.1 °F 61.3 °F 94% 29.97 in 2.5 mi ESE 9.2 mph - N/A   Overcast
7:55 AM 63.7 °F 61.7 °F 93% 29.98 in 3.0 mi ESE 9.2 mph - N/A   Overcast
8:15 AM 64.4 °F 61.7 °F 91% 29.98 in 3.0 mi ESE 4.6 mph - N/A   Overcast
8:35 AM 64.9 °F 61.9 °F 90% 29.98 in 3.0 mi East 8.1 mph - N/A   Overcast
8:55 AM 65.5 °F 62.1 °F 89% 29.99 in 4.0 mi ESE 8.1 mph - N/A   Overcast
9:15 AM 66.0 °F 62.4 °F 88% 29.99 in 4.0 mi East 6.9 mph - N/A   Overcast
9:35 AM 66.2 °F 62.4 °F 88% 29.99 in 4.0 mi SE 8.1 mph - N/A   Overcast
9:55 AM 66.6 °F 62.6 °F 87% 29.99 in 4.0 mi SE 6.9 mph - N/A   Overcast
10:15 AM 67.1 °F 62.8 °F 86% 29.99 in 4.0 mi SE 6.9 mph - N/A   Overcast
10:35 AM 67.1 °F 62.8 °F 86% 29.99 in 4.0 mi ESE 4.6 mph - N/A   Overcast
10:55 AM 67.8 °F 63.0 °F 84% 29.99 in 4.0 mi ESE 6.9 mph - N/A   Overcast
11:15 AM 68.5 °F 63.1 °F 83% 29.99 in 4.0 mi SE 6.9 mph - N/A   Overcast
11:35 AM 68.9 °F 63.0 °F 81% 29.99 in 4.0 mi SE 5.8 mph - N/A   Overcast
11:55 AM 70.2 °F 63.0 °F 78% 29.98 in 5.0 mi SSE 8.1 mph - N/A   Overcast
12:15 PM 71.6 °F 63.3 °F 75% 29.98 in 5.0 mi East 4.6 mph - N/A   Overcast
12:35 PM 72.3 °F 63.3 °F 73% 29.97 in 7.0 mi SE 5.8 mph - N/A   Mostly Cloudy
12:55 PM 74.1 °F 63.5 °F 69% 29.97 in 7.0 mi ESE 8.1 mph - N/A   Mostly Cloudy
1:15 PM 73.8 °F 63.1 °F 69% 29.98 in 5.0 mi ENE 9.2 mph - N/A   Overcast
1:35 PM 72.9 °F 63.5 °F 72% 29.98 in 5.0 mi NE 6.9 mph - N/A   Overcast
1:55 PM 73.9 °F 63.3 °F 69% 29.98 in 5.0 mi East 6.9 mph - N/A   Overcast
2:15 PM 75.2 °F 62.8 °F 65% 29.98 in 7.0 mi Calm Calm - N/A   Overcast
2:35 PM 75.0 °F 62.4 °F 65% 29.98 in 7.0 mi ESE 5.8 mph - N/A   Mostly Cloudy
2:55 PM 75.0 °F 62.8 °F 66% 29.98 in 7.0 mi NE 8.1 mph - N/A   Scattered Clouds
3:15 PM 75.7 °F 62.4 °F 63% 29.98 in 7.0 mi ENE 4.6 mph - N/A   Mostly Cloudy
3:55 PM 76.8 °F 61.9 °F 60% 29.97 in 10.0 mi East 5.8 mph - N/A   Mostly Cloudy
4:15 PM 76.3 °F 61.7 °F 60% 29.96 in 10.0 mi ENE 4.6 mph - N/A   Overcast
4:35 PM 76.1 °F 61.3 °F 60% 29.96 in 10.0 mi East 6.9 mph - N/A   Scattered Clouds
4:55 PM 77.0 °F 60.8 °F 57% 29.96 in 10.0 mi ESE 6.9 mph - N/A   Mostly Cloudy
5:15 PM 77.5 °F 60.4 °F 55% 29.97 in 10.0 mi ENE 4.6 mph - N/A   Scattered Clouds
5:35 PM 77.4 °F 61.3 °F 58% 29.97 in 10.0 mi ENE 10.4 mph - N/A   Scattered Clouds
5:55 PM 75.6 °F 61.0 °F 60% 29.98 in 10.0 mi East 8.1 mph - N/A   Scattered Clouds
6:15 PM 75.4 °F 61.2 °F 61% 29.98 in 10.0 mi ENE 8.1 mph - N/A   Clear
6:35 PM 75.2 °F 61.2 °F 62% 29.98 in 10.0 mi East 6.9 mph - N/A   Clear
6:55 PM 74.3 °F 61.2 °F 63% 29.98 in 10.0 mi ENE 8.1 mph - N/A   Scattered Clouds
7:15 PM 73.0 °F 61.3 °F 67% 29.99 in 10.0 mi ENE 8.1 mph - N/A   Clear
7:35 PM 71.6 °F 61.2 °F 70% 30.00 in 10.0 mi ENE 9.2 mph - N/A   Clear
7:55 PM 70.7 °F 61.2 °F 72% 30.00 in 10.0 mi East 6.9 mph - N/A   Clear
8:15 PM 69.6 °F 61.2 °F 74% 30.00 in 10.0 mi East 8.1 mph - N/A   Clear
8:35 PM 68.7 °F 61.2 °F 77% 30.00 in 10.0 mi East 6.9 mph - N/A   Clear
8:55 PM 67.8 °F 61.0 °F 79% 30.01 in 10.0 mi East 6.9 mph - N/A   Clear
9:15 PM 67.3 °F 60.8 °F 80% 30.01 in 10.0 mi East 6.9 mph - N/A   Clear
9:35 PM 67.1 °F 60.4 °F 79% 30.02 in 10.0 mi East 5.8 mph - N/A   Clear
9:55 PM 66.0 °F 60.1 °F 81% 30.02 in 10.0 mi East 8.1 mph - N/A   Clear
10:15 PM 65.5 °F 59.7 °F 82% 30.03 in 10.0 mi East 6.9 mph - N/A   Clear
10:35 PM 64.4 °F 59.4 °F 84% 30.03 in 7.0 mi East 5.8 mph - N/A   Clear
10:55 PM 64.0 °F 59.2 °F 84% 30.03 in 7.0 mi East 8.1 mph - N/A   Clear
11:15 PM 64.0 °F 59.0 °F 84% 30.02 in 7.0 mi East 8.1 mph - N/A   Clear
11:35 PM 63.7 °F 58.6 °F 84% 30.02 in 7.0 mi East 6.9 mph - N/A   Clear
11:55 PM 63.5 °F 58.3 °F 83% 30.01 in 7.0 mi ESE 10.4 mph - N/A   Clear